Location: Newark
(50.0306°N, 2.3272°E)
Time: 10:41:49
(UTC+00:00)

Transit 2A Rocket - Pass Details

Date: 12 December 2019
Orbit: 593 x 910 km, 66.7° (Epoch: 24 January)

Event Time Altitude Azimuth Distance (km) Brightness Sun altitude
Rises 00:09:51 0° 323° (NW) 2,860 - -62.5°
Reaches altitude 10° 00:12:03 10° 324° (NW) 1,973 - -62.5°
Maximum altitude 00:16:29 84° 53° (NE) 646 - -62.3°
Drops below altitude 10° 00:21:12 10° 142° (SE) 2,098 - -62.0°
Sets 00:23:36 0° 143° (SE) 3,058 - -61.9°
